This is the latest recevied weather packets stored in our database for station/object N0QWM. If no packets are shown the sender has not sent any weather packets the latest 10 day(s).
| Time | Temp. | Humidity | Pressure | Rain* | Wind** | Luminosity | Snow |
|---|---|---|---|---|---|---|---|
| 1788458530 | 37.22° C | 51% | 1021.3 hPa | 0 mm | - | 622 W/m² | - |
| 1788458229 | 36.67° C | 51% | 1021.2 hPa | 0 mm | - | 668 W/m² | - |
| 1788457923 | 36.67° C | 51% | 1021.1 hPa | 0 mm | - | 691 W/m² | - |
| 1788457622 | 36.67° C | 52% | 1021.5 hPa | 0 mm | - | 667 W/m² | - |
| 1788457317 | 35.56° C | 53% | 1021.6 hPa | 0 mm | - | 638 W/m² | - |
| 1788457012 | 36.11° C | 52% | 1021.4 hPa | 0 mm | - | 153 W/m² | - |
| 1788456709 | 36.67° C | 52% | 1021.7 hPa | 0 mm | - | 622 W/m² | - |
| 1788456407 | 36.67° C | 52% | 1021.4 hPa | 0 mm | - | 669 W/m² | - |
| 1788456099 | 37.22° C | 51% | 1021.5 hPa | 0 mm | - | 669 W/m² | - |
| 1788455798 | 36.67° C | 51% | 1021.8 hPa | 0 mm | - | 697 W/m² | - |
| 1788455495 | 36.67° C | 51% | 1021.7 hPa | 0 mm | - | 691 W/m² | - |
| 1788455193 | 36.11° C | 53% | 1022 hPa | 0 mm | - | 700 W/m² | - |
| 1788454889 | 35.56° C | 53% | 1022 hPa | 0 mm | - | 174 W/m² | - |
| 1788454587 | 36.11° C | 50% | 1022.1 hPa | 0 mm | - | 389 W/m² | - |
| 1788454282 | 35.56° C | 53% | 1022.2 hPa | 0 mm | - | 565 W/m² | - |
| 1788453976 | 35.56° C | 54% | 1022.1 hPa | 0 mm | - | 581 W/m² | - |
| 1788453672 | 35.56° C | 56% | 1022.2 hPa | 0 mm | - | 580 W/m² | - |
| 1788453367 | 36.11° C | 56% | 1022.4 hPa | 0 mm | - | 614 W/m² | - |
| 1788453063 | 36.11° C | 55% | 1022.2 hPa | 0 mm | - | 655 W/m² | - |
| 1788452759 | 35.56° C | 57% | 1022.2 hPa | 0 mm | - | 660 W/m² | - |
| 1788452455 | 35° C | 58% | 1022.3 hPa | 0 mm | - | 650 W/m² | - |
| 1788452150 | 36.67° C | 56% | 1022.5 hPa | 0 mm | - | 633 W/m² | - |
| 1788451846 | 35.56° C | 56% | 1022.5 hPa | 0 mm | - | 650 W/m² | - |
| 1788451544 | 35° C | 59% | 1022.6 hPa | 0 mm | - | 674 W/m² | - |
| 1788451239 | 34.44° C | 60% | 1022.5 hPa | 0 mm | - | 680 W/m² | - |
* Rain latest hour (hover to see other rain measurements)
** Current wind speed in m/s (hover to see current wind gust speed)